This is the latest recevied weather packets stored in our database for station/object KO4APQ. If no packets are shown the sender has not sent any weather packets the latest 10 day(s).
| Time | Temp. | Humidity | Pressure | Rain* | Wind** | Luminosity | Snow |
|---|---|---|---|---|---|---|---|
| 1777849847 | 20.56° C | 33% | 1016.2 hPa | 0 mm | - | 97 W/m² | - |
| 1777849544 | 20.56° C | 33% | 1016.3 hPa | 0 mm | - | 112 W/m² | - |
| 1777849241 | 20.56° C | 33% | 1016.2 hPa | 0 mm | - | 125 W/m² | - |
| 1777848938 | 20.56° C | 33% | 1016.3 hPa | 0 mm | - | 140 W/m² | - |
| 1777848633 | 21.11° C | 33% | 1016.2 hPa | 0 mm | - | 156 W/m² | - |
| 1777848331 | 21.11° C | 33% | 1016.3 hPa | 0 mm | - | 173 W/m² | - |
| 1777848028 | 21.11° C | 32% | 1016.2 hPa | 0 mm | - | 190 W/m² | - |
| 1777847726 | 21.11° C | 33% | 1016.2 hPa | 0 mm | - | 208 W/m² | - |
| 1777847421 | 21.11° C | 33% | 1016.2 hPa | 0 mm | - | 226 W/m² | - |
| 1777847120 | 21.11° C | 32% | 1016.3 hPa | 0 mm | - | 245 W/m² | - |
| 1777846818 | 21.11° C | 33% | 1016.3 hPa | 0 mm | - | 264 W/m² | - |
| 1777846515 | 21.67° C | 31% | 1016.2 hPa | 0 mm | - | 285 W/m² | - |
| 1777846213 | 21.67° C | 32% | 1016.3 hPa | 0 mm | - | 304 W/m² | - |
| 1777845909 | 21.67° C | 32% | 1016.3 hPa | 0 mm | - | 324 W/m² | - |
| 1777845605 | 21.67° C | 31% | 1016.3 hPa | 0 mm | - | 343 W/m² | - |
| 1777845303 | 21.67° C | 28% | 1016.7 hPa | 0 mm | - | 364 W/m² | - |
| 1777845000 | 21.67° C | 30% | 1016.6 hPa | 0 mm | - | 384 W/m² | - |
| 1777844698 | 21.67° C | 30% | 1016.6 hPa | 0 mm | - | 401 W/m² | - |
| 1777844394 | 21.67° C | 29% | 1016.7 hPa | 0 mm | - | 424 W/m² | - |
| 1777844093 | 21.67° C | 28% | 1016.6 hPa | 0 mm | - | 444 W/m² | - |
| 1777843789 | 21.67° C | 28% | 1016.6 hPa | 0 mm | - | 462 W/m² | - |
| 1777843486 | 21.67° C | 28% | 1016.6 hPa | 0 mm | - | 482 W/m² | - |
| 1777843184 | 21.67° C | 25% | 1016.7 hPa | 0 mm | - | 502 W/m² | - |
| 1777842881 | 21.67° C | 25% | 1016.7 hPa | 0 mm | - | 521 W/m² | - |
| 1777842576 | 21.67° C | 26% | 1016.7 hPa | 0 mm | - | 541 W/m² | - |
* Rain latest hour (hover to see other rain measurements)
** Current wind speed in m/s (hover to see current wind gust speed)